Regional Weather Roundup
Issued by NWS

Home | Current Version | Previous Version | Graphics & Text | Print | Product List | Glossary On
Versions: 1 2 3 4 5 6 7 8 9 10 11 12 13 14 15 16 17 18 19 20 21 22 23 24 25 26 27 28 29 30 31 32 33 34 35 36 37 38 39 40 41 42 43 44 45 46 47 48 49 50
000
ASUS43 KMKX 230900
RWRWI

WISCONSIN REGIONAL WEATHER ROUNDUP
NATIONAL WEATHER SERVICE MILWAUKEE/SULLIVAN WI
400 AM CDT THU MAR 23 2017

NOTE: "FAIR" INDICATES FEW OR NO CLOUDS BELOW 12,000 FEET WITH NO
SIGNIFICANT WEATHER AND/OR OBSTRUCTIONS TO VISIBILITY.

WIZ001-002-006>008-014>016-023>028-231000-
NORTHWEST WISCONSIN

CITY           SKY/WX    TMP DP  RH WIND       PRES   REMARKS
SUPERIOR ARPT  CLOUDY    32  21  63 SE3       30.26F
ASHLAND        FLURRIES  31  20  63 S6        30.30F WCI  25
HAYWARD        CLOUDY    33  18  53 S8        30.27F WCI  26
SIREN          LGT SNOW  30  26  83 S8        30.28R WCI  23
CUMBERLAND     CLOUDY    32  14  47 S9        30.27R WCI  24
RICE LAKE      FLURRIES  33  17  51 SE15      30.30R WCI  23
CHETEK         CLOUDY    33  17  51 SE10      30.29S WCI  25
LADYSMITH      CLOUDY    32  20  60 SE7       30.32S WCI  26
EAU CLAIRE     NOT AVBL
MENOMONIE      CLOUDY    34  21  59 E9        30.28F WCI  26
NEW RICHMOND   CLOUDY    34  16  48 SE8       30.25F WCI  27
OSCEOLA        CLOUDY    35  19  52 SE8       30.27F WCI  28
$$

WIZ003>005-009-010-017-018-231000-
NORTH CENTRAL WISCONSIN

CITY           SKY/WX    TMP DP  RH WIND       PRES   REMARKS
MANITOWISH WTR CLOUDY    27  15  60 S9        30.30F WCI  18
ARBOR VITAE    CLOUDY    29  18  62 S6        30.30F WCI  23
WOODRUFF       CLOUDY    29  18  62 S6        30.30F WCI  23
RHINELANDER    CLOUDY    28  18  66 S7        30.33S WCI  21
EAGLE RIVER    CLOUDY    25  15  64 S7        30.32F WCI  18
LAND O LAKES   CLOUDY    27  14  59 S6        30.32F WCI  20
PHILLIPS       FLURRIES  28  18  64 S8        30.29F WCI  20
TOMAHAWK       CLOUDY    27  19  70 SE3       30.34R
MEDFORD        CLOUDY    27  20  73 SE9       30.32S WCI  18
MERRILL        CLOUDY    27  20  75 S3        30.35F
$$

WIZ029-030-035-036-043>047-231000-
CENTRAL WISCONSIN

CITY           SKY/WX    TMP DP  RH WIND       PRES   REMARKS
WAUSAU         CLOUDY    26  19  74 S9        30.35S WCI  17
MOSINEE        CLOUDY    27  21  80 SE7       30.37S WCI  19
MARSHFIELD     CLOUDY    28  19  69 S9        30.33F WCI  19
STEVENS POINT  CLOUDY    24  18  76 SE9       30.38F WCI  15
WAUPACA        CLOUDY    27  21  76 SE3       30.42F
WAUTOMA        CLOUDY    26  20  77 E3        30.40F
WISC RAPIDS    CLOUDY    27  20  75 S7        30.38F WCI  19
CAMP DOUGLAS   NOT AVBL
$$

WIZ011>013-019>022-031-037>040-048>050-231000-
NORTHEAST WISCONSIN

CITY           SKY/WX    TMP DP  RH WIND       PRES   REMARKS
ANTIGO         CLOUDY    24  19  83 S9        30.36F WCI  14
SHAWANO        CLOUDY    27  20  76 CALM      30.42F
OCONTO         MOCLDY    24  19  78 CALM      30.44S
STURGEON BAY   CLOUDY    26  20  77 S3        30.44S
GREEN BAY      CLOUDY    27  22  81 CALM      30.43F
MANITOWOC      NOT AVBL
APPLETON       CLOUDY    28  19  69 S6        30.40S WCI  22
CLINTONVILLE   CLOUDY    27  21  80 SE5       30.40F WCI  21
OSHKOSH        PTCLDY    25  19  78 S6        30.40F WCI  18
$$

WIZ032>034-041-042-053>061-231000-
SOUTHWEST WISCONSIN

CITY           SKY/WX    TMP DP  RH WIND       PRES   REMARKS
LA CROSSE      CLOUDY    37  22  54 SE13      30.31F WCI  29
SPARTA         CLOUDY    34  21  60 SE7       30.35S WCI  28
VIROQUA        CLOUDY    32  20  62 SE15      30.31F WCI  22
BOSCOBEL       CLOUDY    34  19  54 SE6       30.36F WCI  29
PRAIRIE DU CHI CLOUDY    37  18  47 SE6       30.34S WCI  32
PLATTEVILLE    CLOUDY    32  22  65 SE10      30.35F WCI  24
$$

WIZ056-057-062-063-064-067-068-231000-
SOUTH CENTRAL WISCONSIN

CITY           SKY/WX    TMP DP  RH WIND       PRES   REMARKS
REEDSBURG      CLOUDY    30  19  64 SE6       30.37S WCI  24
BARABOO/DELLS  CLOUDY    29  20  70 SE7       30.37F WCI  22
LONE ROCK      NOT AVBL
MINERAL POINT  CLOUDY    32  21  64 SE10      30.35R WCI  24
MADISON        CLOUDY    28  19  69 SE7       30.38F WCI  21
MIDDLETON      CLOUDY    30  21  69 SE7       30.38F WCI  23
WATERTOWN      CLOUDY    26  21  81 SE8       30.40F WCI  18
MONROE         CLOUDY    28  21  74 SE7       30.37F WCI  21
JANESVILLE     CLOUDY    32  23  69 SE7       30.39F WCI  26
$$

WIZ051-052-058>065-066-070>072-231000-
SOUTHEAST WISCONSIN

CITY           SKY/WX    TMP DP  RH WIND       PRES   REMARKS
MILWAUKEE      CLOUDY    27  20  75 CALM      30.43F
WAUKESHA       PTCLDY    25  19  80 SE3       30.43S
MILWAUKEE/TIMM PTCLDY    23  18  80 CALM      30.44F
RACINE         CLOUDY    33  22  63 S7        30.45S WCI  27
KENOSHA        CLOUDY    29  23  78 SE6       30.43S WCI  23
FOND DU LAC    CLOUDY    28  20  71 S8        30.41F WCI  20
SHEBOYGAN      CLOUDY    25  20  81 SW3       30.42F
WEST BEND      PTCLDY    21  21 100 CALM      30.42F
JUNEAU         CLOUDY    26  20  78 SE5       30.41F WCI  21
$$

LSZ147-162-231000-
LAKE SUPERIOR

STATION/POSITION TIME  TEMP    WIND        PRES    WAVE
                       AIR SEA DIR/SP/G            HT/PER
                 (UTC) (F)     (DEG/KT/KT) (MB)    (FT/S)
DEVILS ISLAND    0800   32     160/  7/ 12 1026.9F
PORT WING        0830   32     170/  7/ 13 1025.7S
SAXON HARBOR     0830   34     180/  5/  9 1025.7S
$$

LMZ867-665-643>646-231000-
LAKE MICHIGAN

STATION/POSITION TIME  TEMP    WIND        PRES    WAVE
                       AIR SEA DIR/SP/G            HT/PER
                 (UTC) (F)     (DEG/KT/KT) (MB)    (FT/S)
CHAMBERS ISLAND  0840   26     160/  2/  4 1030.1S
NORTHPORT PIER   0840   29     170/  3/  8 1030.5S
SISTER BAY       0806   26     170/  5/  7   N/A
KEWAUNEE LAKESHO 0830   31     180/ 13/ 17 1030.2S
SHEBOYGAN LAKESH 0800   31     150/ 14/ 15 1031.6F
PORT WASHINGTON  0840   33     160/ 10/ 13 1031.5F
MILWAUKEE LAKESH 0830   33     140/ 11/ 12   N/A
KENOSHA   LAKESH 0800   35     150/ 16/ 18 1030.1
$$

TC  - TEMPERATURE IN CELSIUS
VSB - VISIBILITY IN STATUTE MILES
WCI - WIND CHILL INDEX
HX  - HEAT INDEX





USA.gov is the U.S. government's official web portal to all federal, state and local government web resources and services.